YO8RXT-3 Weather Reports


time (UTC)temp
F
wind
direction
speed
knots
gust
knots
rain 1hr
in
rain 24hr
in
rain mn
in
humidity
%
barometer
mb
20260901063502 72 130 6.1 0.0 0.00 0.00 0.00 47 1015.0
20260901060502 70 120 8.7 0.0 0.00 0.00 0.00 50 1015.0
20260901053502 68 110 7.8 0.0 0.00 0.00 0.00 53 1015.0
20260901050502 68 110 8.7 0.0 0.00 0.00 0.00 49 1015.0
20260901043502 66 100 7.0 0.0 0.00 0.00 0.00 52 1015.0
20260901040502 66 100 8.7 0.0 0.00 0.00 0.00 52 1015.0
20260901033502 64 110 8.7 0.0 0.00 0.00 0.00 56 1015.0
20260901030502 64 100 7.0 0.0 0.00 0.00 0.00 56 1015.0
20260901023502 66 100 7.8 0.0 0.00 0.00 0.00 52 1015.0
20260901020503 66 90 7.0 0.0 0.00 0.00 0.00 49 1015.0
20260901013502 66 100 7.8 0.0 0.00 0.00 0.00 49 1015.0
20260901010502 68 90 8.7 0.0 0.00 0.00 0.00 46 1015.0
20260901003503 70 110 7.8 0.0 0.00 0.00 0.00 43 1016.0
20260901000503 70 110 7.0 0.0 0.00 0.00 0.00 43 1016.0
20260831233502 72 130 7.0 0.0 0.00 0.00 0.00 41 1016.0
20260831230502 75 170 7.0 0.0 0.00 0.00 0.00 36 1016.0
20260831223502 75 150 7.0 0.0 0.00 0.00 0.00 39 1016.0
20260831220504 75 170 8.7 0.0 0.00 0.00 0.00 39 1017.0
20260831213502 75 150 7.0 0.0 0.00 0.00 0.00 39 1017.0
20260831210502 75 150 7.0 0.0 0.00 0.00 0.00 41 1017.0
20260831203502 75 150 5.2 0.0 0.00 0.00 0.00 41 1016.0
20260831200502 75 150 7.8 0.0 0.00 0.00 0.00 39 1016.0
20260831193503 79 120 6.1 0.0 0.00 0.00 0.00 34 1016.0
20260831190503 77 110 4.3 0.0 0.00 0.00 0.00 36 1016.0
20260831183503 79 110 5.2 0.0 0.00 0.00 0.00 34 1016.0
20260831180502 79 140 4.3 0.0 0.00 0.00 0.00 34 1016.0
20260831173502 81 150 7.8 0.0 0.00 0.00 0.00 32 1015.0
20260831170503 81 140 7.0 0.0 0.00 0.00 0.00 34 1015.0
20260831163502 82 150 7.8 0.0 0.00 0.00 0.00 32 1015.0
20260831160502 84 150 7.8 0.0 0.00 0.00 0.00 31 1015.0
20260831153502 86 160 7.8 0.0 0.00 0.00 0.00 29 1015.0
20260831150502 88 160 8.7 0.0 0.00 0.00 0.00 27 1015.0
20260831143502 88 170 7.8 0.0 0.00 0.00 0.00 27 1015.0
20260831140501 88 150 8.7 0.0 0.00 0.00 0.00 27 1015.0
20260831133502 90 140 8.7 0.0 0.00 0.00 0.00 27 1016.0
20260831130502 88 160 7.0 0.0 0.00 0.00 0.00 29 1016.0
20260831123502 90 190 5.2 0.0 0.00 0.00 0.00 27 1016.0
20260831120502 88 150 8.7 0.0 0.00 0.00 0.00 29 1016.0
20260831113502 88 180 7.0 0.0 0.00 0.00 0.00 29 1016.0
20260831110503 88 150 8.7 0.0 0.00 0.00 0.00 29 1017.0
20260831103502 88 150 7.8 0.0 0.00 0.00 0.00 31 1017.0
20260831100502 86 180 6.1 0.0 0.00 0.00 0.00 31 1017.0
20260831093502 86 160 7.8 0.0 0.00 0.00 0.00 33 1017.0
20260831090502 84 180 7.8 0.0 0.00 0.00 0.00 33 1018.0
20260831083502 82 160 7.0 0.0 0.00 0.00 0.00 35 1018.0
20260831080502 81 170 6.1 0.0 0.00 0.00 0.00 37 1018.0
20260831073502 79 130 6.1 0.0 0.00 0.00 0.00 42 1018.0
20260831070501 75 120 6.1 0.0 0.00 0.00 0.00 47 1018.0